Regional Weather Roundup
Issued by NWS

Home | Current Version | Previous Version | Text Only | Print | Product List | Glossary Off
Versions: 1 2 3 4 5 6 7 8 9 10 11 12 13 14 15 16 17 18 19 20 21 22 23 24 25 26 27 28 29 30 31 32 33 34 35 36 37 38 39 40 41 42 43 44 45 46 47 48 49 50

000
ASUS44 KMEG 192310
RWRTN
TENNESSEE HOURLY STATE WEATHER ROUNDUP
NATIONAL WEATHER SERVICE MEMPHIS TN
600 PM CDT WED JUL 19 2017

TNZ002-004-019-021-049-052-054-088>092-200000-
WEST TENNESSEE

CITY           SKY/WX    TMP DP  RH WIND       PRES   REMARKS
MEMPHIS INTL   MOSUNNY   95  70  44 SW6       30.07F HX 101
NWS MEMPHIS      N/A     92 N/A N/A MISG        N/A
JACKSON        SUNNY     93  72  50 NW7       30.08S HX 101
SOMERVILLE       N/A     91  73  55 VRB5      30.07F HX 100
COVINGTON      SUNNY     91  73  55 NW3       30.07F HX 100
UNION CITY     SUNNY     90  75  62 SW3       30.06F HX 100
BOLIVAR        SUNNY     91  72  52 W6        30.07F HX  98
HUNTINGDON     SUNNY     91  75  59 W6        30.07F HX 102
LEXINGTON      SUNNY     88  75  66 NW5       30.08S HX  97
SELMER         SUNNY     91  72  52 CALM      30.07F HX  98
SAVANNAH       SUNNY     91  72  52 N5        30.07S HX  98
$$

TNZ008-025-027-028-033-062-065-066-200000-
NORTH MIDDLE TENNESSEE

CITY           SKY/WX    TMP DP  RH WIND       PRES   REMARKS
NASHVILLE      PTSUNNY   81  73  76 E6        30.11R
PORTLAND         N/A     75  72  88 W8        30.12R FOG
CLARKSVILLE    CLOUDY    83  75  77 E5        30.08F HX  90
SMYRNA         PTSUNNY   81  70  69 W10       30.11S
COOKEVILLE     SUNNY     88  70  55 VRB5      30.10S HX  92
GALLATIN       MOSUNNY   81  70  69 CALM      30.12S
CROSSVILLE     SUNNY     85  66  53 NW7       30.17R
$$

TNZ061-075-076-078-094-096-097-200000-
SOUTH MIDDLE TENNESSEE

CITY           SKY/WX    TMP DP  RH WIND       PRES   REMARKS
FAYETTEVILLE   MOSUNNY   90  72  55 N6        30.10R HX  96
TULLAHOMA      SUNNY     88  68  51 N5        30.12S HX  91
WINCHESTER     MOSUNNY   90  70  51 N6        30.11R HX  95
MCMINNVILLE    SUNNY     90  73  58 N6        30.11S HX  98
COLUMBIA       SUNNY     91  72  52 CALM      30.07S HX  98
$$

TNZ017-018-042-046-047-200000-
NORTHEAST TENNESSEE

CITY           SKY/WX    TMP DP  RH WIND       PRES   REMARKS
TRI CITIES     MOSUNNY   91  60  35 W7        30.11R HX  90
ELIZABETHTON   SUNNY     88  64  45 CALM      30.11S
$$

TNZ012-013-036-069-073-074-200000-
CENTRAL EAST TENNESSEE

CITY           SKY/WX    TMP DP  RH WIND       PRES   REMARKS
KNOXVILLE      MOSUNNY   91  64  40 W8        30.08S HX  92
OAK RIDGE      SUNNY     92  62  36 W5        30.10S HX  92
DOWNTOWN KNOXV CLOUDY    90  70  51 CALM      30.07R HX  95
GATLINBURG     MOSUNNY   91  61  35 W5        30.08S HX  91
MORRISTOWN     SUNNY     90  64  43 N7        30.10S HX  91
JACKSBORO      SUNNY     88  66  48 VRB3      30.13S HX  90
$$

TNZ083-085-099-200000-
SOUTHEAST TENNESSEE

CITY           SKY/WX    TMP DP  RH WIND       PRES   REMARKS
CHATTANOOGA    MOSUNNY   92  64  39 N10       30.07F HX  93
DAYTON         CLEAR     90  72  55 N6        30.07S HX  96
$$

SKY/WX REPORTED AS FAIR MEANS FEW OR NO CLOUDS BELOW
12 THOUSAND FEET.





USA.gov is the U.S. government's official web portal to all federal, state and local government web resources and services.